User: anonymous   Login
Location: Newark
(17.9939°S, 31.0481°E)
Time: 09:26:32
(UTC+00:00)
Language:

deb Explorer IX - Orbit

View from above orbital plane
View from above orbital plane
View from above satellite
View from above satellite

Ground track
Ground track

The orbit data is extracted from the following two-line orbital elements,

1    85U 61004C   19317.31319225 +.00001141 +00000-0 +26966-3 0  9990
2    85 038.7719 048.0463 0387726 132.8854 230.5132 14.19937926900218
Epoch (UTC): 13 November 2019 07:30:59
Eccentricity: 0.0387726
inclination: 38.7719°
perigee height: 546 km
apogee height: 1105 km
right ascension of ascending node: 48.0463°
argument of perigee: 132.8854°
revolutions per day: 14.19937926
mean anomaly at epoch: 230.5132°
orbit number at epoch: 90021

The dashed part of the orbit path shows where the satellite is in the earth's shadow,  

DLR